Location: Ash Shall?l al Awwal
(24.0167°N, 32.8667°E)
Time: 04:12:11
(UTC+00:00)

GP-B - Pass Details

Date: 02 March 2021
Orbit: 631 x 635 km, 89.8° (Epoch: 12 April)

Event Time Altitude Azimuth Distance (km) Brightness Sun altitude
Rises 17:16:24 0° 180° (S) 2,912 6.5 -20.1°
Reaches altitude 10° 17:18:36 10° 182° (S) 2,008 5.7 -20.6°
Maximum altitude 17:23:01 75° 267° (W) 659 3.2 -21.6°
Drops below altitude 10° 17:27:27 10° 353° (N) 2,018 5.8 -22.6°
Sets 17:29:41 0° 355° (N) 2,929 6.6 -23.1°
